User: anonymous   Login
Location: Ch�tillon
(48.8024°N, 2.2935°E)
Time: 14:58:04
(UTC+00:00)
Language:

Resurs 01 Rocket - Orbit

View from above orbital plane
View from above orbital plane
View from above satellite
View from above satellite

Ground track
Ground track

The orbit data is extracted from the following two-line orbital elements,

1 23343U 94074B   22023.90649954  .00000087  00000-0  19515-4 0  9994
2 23343  97.9163  79.7952 0008144  68.1792 104.6924 14.76939414464829
Epoch (UTC): 23 January 2022 21:45:21
Eccentricity: 0.0008144
inclination: 97.9163°
perigee height: 633 km
apogee height: 645 km
right ascension of ascending node: 79.7952°
argument of perigee: 68.1792°
revolutions per day: 14.76939414
mean anomaly at epoch: 104.6924°
orbit number at epoch: 46482

The dashed part of the orbit path shows where the satellite is in the earth's shadow,  

DLR